Location: Bílinka
(49.3579°N, 14.3767°E)
Time: 01:43:42
(UTC+00:00)

IRIDIUM 114 - Pass Details

Date: 28 January 2023
Orbit: 776 x 779 km, 86.4° (Epoch: 30 March)

Event Time Altitude Azimuth Distance (km) Brightness Sun altitude
Rises 18:35:59 0° 354° (N) 3,277 7.7 -26.7°
Reaches altitude 10° 18:38:20 10° 353° (N) 2,345 6.9 -27.1°
Maximum altitude 18:43:35 75° 269° (W) 812 4.4 -27.9°
Enters shadow 18:45:25 41° 194° (SSW) 1,120 5.1 -28.2°
Exits shadow 18:50:10 - 184° (S) 2,875 7.3 -29.0°
Sets 18:51:07 0° 184° (S) 3,249 7.5 -29.1°
